Regional Weather Roundup
Issued by NWS

Home | Current Version | Previous Version | Text Only | Print | Product List | Glossary Off
Versions: 1 2 3 4 5 6 7 8 9 10 11 12 13 14 15 16 17 18 19 20 21 22 23 24 25 26 27 28 29 30 31 32 33 34 35 36 37 38 39 40 41 42 43 44 45 46 47 48 49 50

000
ASUS45 KBOI 052010
RWRID

IDAHO REGIONAL WEATHER ROUNDUP
NATIONAL WEATHER SERVICE BOISE ID
200 PM MDT SUN JUL 05 2015

NOTE: "FAIR" INDICATES FEW OR NO CLOUDS BELOW 12000 FEET
WITH NO SIGNIFICANT WEATHER AND/OR OBSTRUCTIONS TO VISIBILITY

IDZ012-014-052100-
SOUTHWEST IDAHO


CITY           SKY/WX    TMP DP  RH WIND       PRES   REMARKS
BOISE          CLOUDY    83  51  33 NW7       29.95R
CALDWELL       CLOUDY    79  52  38 W7        29.94R
MOUNTAIN HOME  CLOUDY    87  49  26 W10       29.93S
$$

IDZ016-017-052100-
SOUTHCENTRAL IDAHO


CITY           SKY/WX    TMP DP  RH WIND       PRES   REMARKS
BURLEY         CLOUDY    79  59  50 S7        30.00F
JEROME         CLOUDY    78  54  43 SW10      30.01F
TWIN FALLS     CLOUDY    86  51  29 W16       29.99S
$$

IDZ019>023-052100-
SOUTHEAST IDAHO


CITY           SKY/WX    TMP DP  RH WIND       PRES   REMARKS
IDAHO FALLS    CLOUDY    78  53  41 SW21G29   30.04F
POCATELLO      MOSUNNY   80  49  33 S13       30.04F
REXBURG        CLOUDY    75  52  44 SW14      30.05S
$$

IDZ006-010-011-018-031-032-052100-
CENTRAL IDAHO MOUNTAINS


CITY           SKY/WX    TMP DP  RH WIND       PRES   REMARKS
MCCALL         CLOUDY    80  45  28 S8        30.01F
HAILEY         PTSUNNY   75  55  50 SE17      30.07S
STANLEY          N/A     72  43  35 VRB3      30.14R
SALMON         CLOUDY    84  46  26 W3        29.87S
CHALLIS        CLOUDY    83  31  15 W13       29.98R
$$

IDZ002-004-006-007-026-052100-
NORTHERN IDAHO


CITY           SKY/WX    TMP DP  RH WIND       PRES   REMARKS
LEWISTON       MOSUNNY   95  38  13 NW12G28   29.80S HX  90
LOWELL           N/A     95  49  20 VRB3      29.77F HX  92
COEUR D`ALENE  SUNNY     82  48  30 NE21G31   29.92R
MULLAN PASS    MOSUNNY   68  49  50 VRB3      30.11S
$$


USA.gov is the U.S. government's official web portal to all federal, state and local government web resources and services.